Regional Weather Roundup
Issued by NWS

Home | Current Version | Previous Version | Text Only | Print | Product List | Glossary On
Versions: 1 2 3 4 5 6 7 8 9 10 11 12 13 14 15 16 17 18 19 20 21 22 23 24 25 26 27 28 29 30 31 32 33 34 35 36 37 38 39 40 41 42 43 44 45 46 47 48 49 50
000
ASUS46 KPQR 061110
RWROR

OREGON REGIONAL WEATHER ROUNDUP
NATIONAL WEATHER SERVICE PORTLAND OR
300 AM PST FRI MAR 06 2015

NOTE: "FAIR" INDICATES FEW OR NO CLOUDS BELOW 12,000 FEET WITH
NO SIGNIFICANT WEATHER AND/OR OBSTRUCTIONS TO VISIBILITY.

ORZ001>013-061200-
NORTHWEST OREGON


CITY           SKY/WX    TMP DP  RH WIND       PRES   REMARKS
ASTORIA        CLEAR     38  35  89 CALM      30.34F
NEWPORT        PTCLDY    43  37  81 E6        30.37S
PORTLAND       CLEAR     38  34  85 CALM      30.39S
VANCOUVER WA   CLEAR     35  30  82 CALM      30.38F
SCAPPOOSE      CLEAR     37  34  89 NW3       30.37F
HILLSBORO      CLEAR     35  34  96 CALM      30.37S
AURORA         CLEAR     38  35  89 CALM      30.38F
MCMINNVILLE    CLEAR     37  35  92 CALM      30.38F
SALEM          CLEAR     38  33  82 CALM      30.36F
CORVALLIS      CLEAR     36  34  93 CALM      30.37F
EUGENE         CLEAR     36  33  89 SW3       30.37F FOG
$$

ORZ021-028-061200-
SOUTHWEST OREGON


CITY           SKY/WX    TMP DP  RH WIND       PRES   REMARKS
NORTH BEND     CLEAR     43  41  93 SE7       30.37S
BROOKINGS      CLEAR     41  38  89 CALM      30.35F
ROSEBURG       CLEAR     42  38  85 CALM      30.37S
SEXTON SUMMIT  CLEAR     45  32  60 SE8       30.34F
MEDFORD        CLEAR     39  33  79 CALM      30.37S
$$

ORZ014>016-041-061200-
COLUMBIA GORGE


CITY           SKY/WX    TMP DP  RH WIND       PRES   REMARKS
TROUTDALE      PTCLDY    37  33  85 E3        30.37F
THE DALLES     PTCLDY    37  31  78 CALM      30.39S
$$

ORZ029>031-041-044-049-050-061>064-502-503-505>511-061200-
EASTERN OREGON


CITY           SKY/WX    TMP DP  RH WIND       PRES   REMARKS
REDMOND        PTCLDY    29  21  72 SE3       30.37S
BEND           PTCLDY    36  23  60 S6        30.37S WCI  31
PRINEVILLE     PTCLDY    28  23  80 CALM      30.38S
KLAMATH FALLS  CLEAR     24  19  81 CALM      30.38S
LAKEVIEW       PTCLDY    21  16  79 NW9       30.40S WCI  11
HERMISTON      PTCLDY    29  25  85 S3        30.36S
PENDLETON      PTCLDY    37  25  61 SE8       30.35S WCI  31
JOHN DAY       CLEAR     35  23  62 SE12      30.40S WCI  27
MEACHAM        CLEAR     23  20  88 CALM      30.37S
LA GRANDE      CLEAR     27  12  54 N5        30.38S WCI  21
BAKER CITY     CLEAR     19  16  88 CALM      30.41R
BURNS          CLEAR     26  19  74 NW3       30.39S
ROME             N/A     29  14  53 S3        30.37S
ONTARIO        CLEAR     27  20  75 W3        30.44R
$$



USA.gov is the U.S. government's official web portal to all federal, state and local government web resources and services.